Location: Pedimozza
(42.0500°N, 9.3500°E)
Time: 09:42:50
(UTC+00:00)

CENTAUR R/B - Pass Details

Date: 19 August 2019
Orbit: 780 x 1408 km, 63.4° (Epoch: 17 September)

Event Time Altitude Azimuth Distance (km) Brightness Sun altitude
Rises 18:28:42 0° 322° (NW) 4,185 6.9 -2.7°
Reaches altitude 10° 18:31:23 10° 321° (NW) 3,287 6.4 -3.2°
Maximum altitude 18:39:30 70° 240° (WSW) 1,449 3.6 -4.6°
Drops below altitude 10° 18:48:07 10° 159° (SSE) 3,488 5.0 -6.1°
Sets 18:51:04 0° 157° (SSE) 4,453 5.5 -6.6°
